Miscellaneous Local Product
Issued by NWS Hastings, NE

Home | Current Version | Previous Version | Graphics & Text | Print | Product List | Glossary On
Versions: 1 2 3 4 5 6 7 8 9 10 11 12 13 14 15 16 17 18 19 20 21 22 23 24 25 26 27 28 29 30 31 32 33 34 35 36 37 38 39 40 41 42 43 44 45 46 47 48 49 50
000
AXUS43 KGID 312302
MISGRI

GID CWA HOURLY WEATHER ROUNDUP
NATIONAL WEATHER SERVICE HASTINGS NE
600 PM CDT FRI JUL 31 2015

NOTE: "FAIR" INDICATES FEW OR NO CLOUDS BELOW 12,000 FEET WITH NO
SIGNIFICANT WEATHER AND/OR OBSTRUCTIONS TO VISIBILITY.

...SOUTH CENTRAL NEBRASKA...

CITY           SKY/WX    TMP DP  RH WIND       PRES   REMARKS
GRAND ISLAND   PTSUNNY   75  62  64 NE26G37   30.13R
HASTINGS       SUNNY     91  63  39 S5        30.07F HX  92
KEARNEY        SUNNY     91  64  40 SW10      30.07S HX  93
ORD            PTSUNNY   70  65  84 SE7       30.07F
YORK           TSTM      68  59  73 E15G26    30.13R
AURORA         PTSUNNY   79  59  49 E15G22    30.11R
LEXINGTON      MOSUNNY   94  60  32 SW5       30.08F HX  93
HOLDREGE       SUNNY     92  57  31 SW7       30.08F HX  90
HEBRON         SUNNY     91  58  32 S6        30.06F

...NEBRASKA PANHANDLE...

CITY           SKY/WX    TMP DP  RH WIND       PRES   REMARKS
CHADRON        SUNNY     92  52  25 S12       30.10F
ALLIANCE       MOSUNNY   82  54  37 E10       30.17F
SCOTTSBLUFF    MOSUNNY   89  47  23 S13       30.16F
SIDNEY         PTSUNNY   90  46  21 SE6       30.19F

...WESTERN AND NORTH CENTRAL NEBRASKA...

CITY           SKY/WX    TMP DP  RH WIND       PRES   REMARKS
VALENTINE      SUNNY     95  44  17 N9        30.09F HX  91
AINSWORTH      SUNNY     90  58  33 E7        30.10F
ONEILL         MOSUNNY   89  64  42 E9        30.08F HX  90
BROKEN BOW     MOSUNNY   92  61  35 W9        30.08F HX  92
IMPERIAL       SUNNY     93  47  20 E7        30.12F
NORTH PLATTE   MOSUNNY   89  60  37 E8        30.10F
MCCOOK         SUNNY     95  54  25 SW6       30.08F HX  93

...EASTERN NEBRASKA...

CITY           SKY/WX    TMP DP  RH WIND       PRES   REMARKS
NORFOLK        MOSUNNY   81  60  48 SW14      30.07S
SO SIOUX CITY  MOSUNNY   86  69  56 E9        30.05S HX  90
TEKAMAH        PTSUNNY   84  77  79 CALM      30.05R HX  94
COLUMBUS       CLOUDY    75  59  57 NW5       30.09S
ALBION         PTSUNNY   75  62  62 SW9       30.08F
OMAHA EPPLEY   CLOUDY    85  78  80 N5        30.03S HX  96
OFFUTT AFB     CLOUDY    86  74  68 SW2       30.03S HX  94
MILLARD        CLOUDY    88  73  60 NW5       30.03S HX  94
LINCOLN        PTSUNNY   87  71  58 NW8       30.06R HX  93
NEBRASKA CITY  PTSUNNY   85  71  63 S6        30.04F HX  90
BEATRICE       MOSUNNY   90  70  52 SW6       30.06F HX  95
FALLS CITY     SUNNY     89  73  59 VRB5      30.03F HX  97

...NORTHERN KANSAS...

CITY           SKY/WX    TMP DP  RH WIND       PRES   REMARKS
GOODLAND       MOSUNNY   89  55  31 S9        30.16F
HILL CITY      SUNNY     94  61  33 S7        30.08F HX  94
NORTON         CLEAR     91  54  27 SE8       30.08S
PHILLIPSBURG   SUNNY     95  61  31 SE8       30.07F HX  95
SMITH CENTER   SUNNY     91  59  33 S7        30.06F HX  90
HAYS           SUNNY     91  59  33 S9        30.08F HX  90
RUSSELL        SUNNY     92  63  38 S8        30.06F HX  93
CONCORDIA      SUNNY     91  64  40 SE9       30.05F HX  92
SALINA         SUNNY     92  68  45 S7        30.06F HX  96
TOPEKA         SUNNY     89  65  44 SE3       30.05F HX  91



USA.gov is the U.S. government's official web portal to all federal, state and local government web resources and services.